Location: Unspecified
(0.0000°N, 0.0000°E)
Time: 19:01:11
(UTC+00:00)

Courier 1B Rocket - Pass Details

Date: 25 November 2019
Orbit: 920 x 1202 km, 28.2° (Epoch: 08 December)

Event Time Altitude Azimuth Distance (km) Brightness Sun altitude
Rises 17:49:44 0° 323° (NW) 3,910 8.4 -0.6°
Reaches altitude 10° 17:53:09 10° 337° (NNW) 3,000 7.6 -1.4°
Maximum altitude 17:58:47 23° 27° (NNE) 2,256 6.5 -2.8°
Drops below altitude 10° 18:04:35 10° 75° (ENE) 3,111 7.0 -4.1°
Enters shadow 18:06:52 - 85° (E) 3,714 7.4 -4.6°
Sets 18:08:11 0° 89° (E) 4,090 - -5.0°
